Simultaneous Nadir Overpasses (SNOs) Predictions

Prediction of SNOs near US between AQUA and NPP Satellite Orbit:

Table of predicted SNOs near US for the next 10.0 days since TLE Epoch: 9/17/2016
Index Date (AQUA) Time (AQUA) AQUA Lat,Lon Date (NPP) Time (NPP) NPP Lat,Lon Distance(km) Time Diff (sec)
1 09/18/2016 09:22:44 24.70,-113.13 09/18/2016 09:15:42 24.75,-113.45 33.63 422
2 09/21/2016 06:29:50 46.33, -65.04 09/21/2016 06:30:53 46.70, -66.96 152.55 63
3 09/21/2016 08:07:43 49.89, -88.35 09/21/2016 08:11:19 50.38, -90.76 180.60 216
4 09/21/2016 09:46:36 49.89,-113.07 09/21/2016 09:52:47 50.50,-116.09 225.07 371
5 09/23/2016 19:05:51 49.98, -92.52 09/23/2016 19:01:38 49.63, -94.32 134.70 253
6 09/23/2016 20:44:44 49.98,-117.24 09/23/2016 20:43:07 49.58,-119.67 179.99 97
7 09/26/2016 08:34:18 20.85,-101.67 09/26/2016 08:26:12 20.88,-101.78 11.45 486
8 09/26/2016 10:10:40 29.94,-124.15 09/26/2016 10:05:05 30.07,-124.77 60.40 335




NCC Satellite Simultaneous Nadir Overpasses (SNOs) Prediction Service
